Bloomington, IN

3:39 PM EDT on July 24, 2017 (GMT -0400)
Monroe County

Weather History for KBMG - November, 2013

Change the Weather History Date:

Sunday, November 10, 2013

  Actual Average Record
Temperature  
Mean Temperature 41 °F 46 °F  
Max Temperature 53 °F 57 °F 73 °F (2006)
Min Temperature 28 °F 36 °F 24 °F (2008)
Degree Days  
Heating Degree Days 24 19  
Month to date heating degree days 184 169  
Since 1 July heating degree days 588 588  
Cooling Degree Days 0 0  
Month to date cooling degree days 0 0  
Year to date cooling degree days 1006 926  
Moisture  
Dew Point 29 °F    
Average Humidity 60    
Maximum Humidity 85    
Minimum Humidity 35    
Precipitation  
Precipitation 0.00 in 0.12 in 0.85 in (2002)
Month to date precipitation 0.56 1.38  
Year to date precipitation 39.23 41.45  
Sea Level Pressure  
Sea Level Pressure 30.30 in    
Wind  
Wind Speed 4 mph (WNW)    
Max Wind Speed 12 mph    
Max Gust Speed 19 mph    
Visibility 10 miles    
Events      
T = Trace of Precipitation, MM = Missing Value Source: NWS Daily Summary

Daily Weather History Graph

Daily Weather History Graph

Search for Another Location

Airport or City:

Trip Planner

Search our weather history database for the weather conditions in past years. The results will help you decide how hot, cold, wet, or windy it might be!

Date:

Astronomy

Nov. 10, 2013 Rise Set
Actual Time 7:24 AM EST 5:36 PM EST
Civil Twilight 6:56 AM EST 6:04 PM EST
Nautical Twilight 6:23 AM EST 6:36 PM EST
Astronomical Twilight 5:52 AM EST 7:07 PM EST
Moon 1:38 PM EST (11/10) 12:05 AM EST (11/10)
Length of Visible Light 11h 08m
Length of Day
10h 11m
First Quarter, 55% of the Moon is Illuminated
Nov 10
First Quarter
Nov 17
Full
Nov 25
Last Quarter
Dec 2
New
Dec 9
First Quarter

Hourly Weather History & Observations

Time (EST) Temp. Windchill Dew Point Humidity Pressure Visibility Wind Dir Wind Speed Gust Speed Precip Events Conditions
12:53 AM 46.0 °F 43.9 °F 37.9 °F 73% 30.17 in 10.0 mi West 4.6 mph - N/A   Clear
1:53 AM 46.9 °F - 37.0 °F 68% 30.17 in 10.0 mi West 4.6 mph - N/A   Clear
2:53 AM 48.0 °F - 35.1 °F 61% 30.19 in 10.0 mi Variable 6.9 mph - N/A   Clear
3:53 AM 46.9 °F - 33.1 °F 59% 30.20 in 10.0 mi Variable 5.8 mph - N/A   Clear
4:53 AM 44.1 °F 41.5 °F 32.0 °F 63% 30.22 in 10.0 mi Variable 4.6 mph - N/A   Clear
5:53 AM 43.0 °F 39.5 °F 32.0 °F 65% 30.25 in 10.0 mi Variable 5.8 mph - N/A   Clear
6:53 AM 41.0 °F 38.0 °F 30.9 °F 67% 30.27 in 10.0 mi WNW 4.6 mph - N/A   Clear
7:53 AM 39.9 °F 35.8 °F 30.0 °F 68% 30.30 in 10.0 mi Variable 5.8 mph - N/A   Clear
8:53 AM 43.0 °F 40.3 °F 30.0 °F 60% 30.33 in 10.0 mi Variable 4.6 mph - N/A   Clear
9:53 AM 45.0 °F 40.6 °F 28.0 °F 52% 30.34 in 10.0 mi NNW 8.1 mph - N/A   Clear
10:53 AM 46.9 °F - 27.0 °F 46% 30.36 in 10.0 mi NW 8.1 mph - N/A   Clear
11:53 AM 48.9 °F - 26.1 °F 41% 30.37 in 10.0 mi NW 4.6 mph - N/A   Clear
12:53 PM 51.1 °F - 26.1 °F 38% 30.35 in 10.0 mi Variable 5.8 mph 16.1 mph N/A   Clear
1:53 PM 51.1 °F - 26.1 °F 38% 30.34 in 10.0 mi WNW 4.6 mph - N/A   Clear
2:53 PM 53.1 °F - 26.1 °F 35% 30.33 in 10.0 mi North 6.9 mph - N/A   Clear
3:53 PM 52.0 °F - 26.1 °F 37% 30.33 in 10.0 mi WNW 6.9 mph - N/A   Clear
4:53 PM 50.0 °F - 26.1 °F 39% 30.34 in 10.0 mi West 4.6 mph - N/A   Clear
5:53 PM 39.9 °F 37.8 °F 27.0 °F 60% 30.35 in 10.0 mi West 3.5 mph - N/A   Clear
6:53 PM 37.0 °F - 28.0 °F 70% 30.36 in 10.0 mi Calm Calm - N/A   Clear
7:53 PM 34.0 °F - 28.0 °F 79% 30.37 in 10.0 mi Calm Calm - N/A   Clear
8:53 PM 30.9 °F - 26.1 °F 82% 30.36 in 10.0 mi Calm Calm - N/A   Clear
9:53 PM 30.0 °F - 26.1 °F 85% 30.35 in 10.0 mi Calm Calm - N/A   Clear
10:53 PM 30.0 °F - 26.1 °F 85% 30.35 in 10.0 mi Calm Calm - N/A   Clear
11:53 PM 28.9 °F - 26.1 °F 89% 30.32 in 10.0 mi Calm Calm - N/A   Clear